Weather History for TLPL - October, 2012

Change the Weather History Date:

Wednesday, October 10, 2012

  Actual Average Record
Temperature  
Mean Temperature 84 °F -  
Max Temperature 88 °F 85 °F 96 °F (2005)
Min Temperature 80 °F 76 °F 73 °F (1999)
Cooling Degree Days 19    
Growing Degree Days 34 (Base 50)    
Moisture  
Dew Point 76 °F    
Average Humidity 77    
Maximum Humidity 89    
Minimum Humidity 61    
Precipitation  
Precipitation 0.02 in - - ()
Sea Level Pressure  
Sea Level Pressure 29.87 in    
Wind  
Wind Speed 15 mph ()    
Max Wind Speed 24 mph    
Max Gust Speed -    
Visibility 7.6 miles    
Events      
Averages and records for this station are not official NWS values.
T = Trace of Precipitation, MM = Missing Value Source: Averaged Metar Reports

Daily Weather History Graph

Daily Weather History Graph

Search for Another Location

Airport or City:

Trip Planner

Search our weather history database for the weather conditions in past years. The results will help you decide how hot, cold, wet, or windy it might be!

Date:

Astronomy

Oct. 10, 2012 Rise Set
Actual Time 5:54 AM AST 5:47 PM AST
Civil Twilight 5:32 AM AST 6:08 PM AST
Nautical Twilight 5:07 AM AST 6:33 PM AST
Astronomical Twilight 4:43 AM AST 6:58 PM AST
Moon 1:14 AM AST (10/10) 2:03 PM AST (10/10)
Length of Visible Light 12h 35m
Length of Day
11h 53m
Waning Crescent, 27% of the Moon is Illuminated
Oct 10
Waning Crescent
Oct 15
New
Oct 21
First Quarter
Oct 29
Full
Nov 6
Last Quarter

Hourly Weather History & Observations

Time (AST) Temp. Heat Index Dew Point Humidity Pressure Visibility Wind Dir Wind Speed Gust Speed Precip Events Conditions
12:00 AM 80.6 °F 87.1 °F 77.0 °F 89% 29.92 in 6.2 mi East 16.1 mph - N/A   Scattered Clouds
1:00 AM 82.4 °F 89.5 °F 75.2 °F 79% 29.89 in 6.2 mi East 15.0 mph - N/A   Scattered Clouds
2:00 AM 82 °F - 76 °F 76% 29.87 in 14 mi East 16.1 mph - -  
2:00 AM 82.4 °F 89.5 °F 75.2 °F 79% 29.86 in 6.2 mi East 16.1 mph - N/A   Scattered Clouds
3:00 AM 80.6 °F 86.2 °F 75.2 °F 84% 29.86 in 6.2 mi ENE 15.0 mph - N/A   Scattered Clouds
4:00 AM 80.6 °F 86.2 °F 75.2 °F 84% 29.86 in 6.2 mi East 16.1 mph - N/A   Scattered Clouds
5:00 AM 81 °F - 75 °F 77% 29.87 in 19 mi East 13.8 mph - -  
5:00 AM 80.6 °F 86.2 °F 75.2 °F 84% 29.86 in 6.2 mi East 13.8 mph - N/A   Partly Cloudy
6:00 AM 80.6 °F 86.2 °F 75.2 °F 84% 29.86 in 6.2 mi ENE 11.5 mph - N/A   Partly Cloudy
8:00 AM 84 °F - 76 °F 71% 29.91 in 25 mi ENE 13.8 mph - -  
8:00 AM 84.2 °F 94.1 °F 77.0 °F 79% 29.89 in 6.2 mi ENE 13.8 mph - N/A   Partly Cloudy
9:00 AM 86.0 °F 96.9 °F 77.0 °F 74% 29.92 in 6.2 mi ENE 16.1 mph - N/A   Scattered Clouds
10:00 AM 87.8 °F 99.7 °F 77.0 °F 70% 29.95 in 6.2 mi ENE 18.4 mph - N/A   Partly Cloudy
11:00 AM 88 °F - 76 °F 61% 29.94 in 25 mi ENE 20.7 mph - -  
11:00 AM 87.8 °F 99.7 °F 77.0 °F 70% 29.92 in 6.2 mi ENE 20.7 mph - N/A   Partly Cloudy
12:00 PM 87.8 °F 99.7 °F 77.0 °F 70% 29.89 in 6.2 mi ENE 19.6 mph - N/A   Partly Cloudy
1:00 PM 87.8 °F 102.5 °F 78.8 °F 75% 29.86 in 6.2 mi ENE 20.7 mph - N/A   Partly Cloudy
2:00 PM 88 °F - 77 °F 64% 29.83 in 25 mi ENE 20.7 mph - -  
2:00 PM 87.8 °F 99.7 °F 77.0 °F 70% 29.83 in 6.2 mi ENE 20.7 mph - N/A   Mostly Cloudy
3:00 PM 86.0 °F 96.9 °F 77.0 °F 74% 29.83 in 6.2 mi East 16.1 mph - N/A   Partly Cloudy
4:00 PM 86.0 °F 96.9 °F 77.0 °F 74% 29.83 in 6.2 mi ENE 20.7 mph - N/A   Partly Cloudy
5:00 PM 83 °F - 78 °F 81% 29.82 in 6 mi ENE 12.7 mph - -   Partly Cloudy
5:00 PM 82.4 °F 92.4 °F 78.8 °F 89% 29.80 in 6.2 mi ENE 12.7 mph - N/A   Scattered Clouds
6:00 PM 82.4 °F 90.9 °F 77.0 °F 84% 29.83 in 6.2 mi East 17.3 mph - N/A   Scattered Clouds
7:00 PM 82.4 °F 90.9 °F 77.0 °F 84% 29.83 in 6.2 mi East 16.1 mph - N/A   Scattered Clouds
8:00 PM 83 °F - 76 °F 73% 29.84 in 19 mi ENE 15.0 mph - -   Scattered Clouds
8:00 PM 82.4 °F 89.5 °F 75.2 °F 79% 29.83 in 6.2 mi ENE 15.0 mph - N/A   Scattered Clouds
9:00 PM 82.4 °F 87.2 °F 71.6 °F 70% 29.86 in 6.2 mi East 18.4 mph - N/A   Scattered Clouds
10:00 PM 82.4 °F 89.5 °F 75.2 °F 79% 29.86 in 6.2 mi ENE 16.1 mph - N/A   Mostly Cloudy
11:00 PM 83 °F - 77 °F 79%  in 11 mi East 24.2 mph - -  
11:00 PM 82.4 °F 90.9 °F 77.0 °F 84% 29.86 in 6.2 mi East 24.2 mph - N/A   Scattered Clouds